"FRM_AIS_EDR_1999.DAT           ",2005-08-05T11:25:53.71 ,"1/0071321148.36239",    0,    0,  162264,"AIS","B1","B1","B1","B1","PISd",0,0,0,0,"B1", 0,15,   0, 0,    0,"AIS","N/A    ","OK ","OK ",    001181.047,    -054.381,    -099.301,    0015.735,    0050.397
"FRM_AIS_EDR_1999.DAT           ",2005-08-05T11:26:01.25 ,"1/0071321156.06303",    0,    1,  162264,"AIS","B1","B1","B1","B1","PISd",0,0,0,0,"B1", 0,15,   0, 0,    0,"AIS","N/A    ","OK ","OK ",    001170.657,    -054.055,    -099.275,    0015.739,    0050.359
"FRM_AIS_EDR_1999.DAT           ",2005-08-05T11:26:08.80 ,"1/0071321163.41902",    0,    2,  162264,"AIS","B1","B1","B1","B1","PISd",0,0,0,0,"B1", 0,15,   0, 0,    0,"AIS","N/A    ","OK ","OK ",    001160.298,    -053.728,    -099.249,    0015.743,    0050.322
"FRM_AIS_EDR_1999.DAT           ",2005-08-05T11:26:16.34 ,"1/0071321171.11965",    0,    3,  162264,"AIS","B1","B1","B1","B1","PISd",0,0,0,0,"B1", 0,15,   0, 0,    0,"AIS","N/A    ","OK ","OK ",    001149.972,    -053.399,    -099.224,    0015.747,    0050.287
"FRM_AIS_EDR_1999.DAT           ",2005-08-05T11:26:23.88 ,"1/0071321178.47565",    0,    4,  162264,"AIS","B1","B1","B1","B1","PISd",0,0,0,0,"B1", 0,15,   0, 0,    0,"AIS","N/A    ","OK ","OK ",    001139.677,    -053.068,    -099.200,    0015.750,    0050.253
"FRM_AIS_EDR_1999.DAT           ",2005-08-05T11:26:31.43 ,"1/0071321186.17628",    0,    5,  162264,"AIS","B1","B1","B1","B1","PISd",0,0,0,0,"B1", 0,15,   0, 0,    0,"AIS","N/A    ","OK ","OK ",    001129.415,    -052.737,    -099.176,    0015.754,    0050.220
"FRM_AIS_EDR_1999.DAT           ",2005-08-05T11:26:38.97 ,"1/0071321193.53227",    0,    6,  162264,"AIS","B1","B1","B1","B1","PISd",0,0,0,0,"B1", 0,15,   0, 0,    0,"AIS","N/A    ","OK ","OK ",    001119.186,    -052.403,    -099.152,    0015.758,    0050.189
"FRM_AIS_EDR_1999.DAT           ",2005-08-05T11:26:46.51 ,"1/0071321201.23291",    0,    7,  162264,"AIS","B1","B1","B1","B1","PISd",0,0,0,0,"B1", 0,15,   0, 0,    0,"AIS","N/A    ","OK ","OK ",    001108.991,    -052.068,    -099.130,    0015.761,    0050.160
"FRM_AIS_EDR_1999.DAT           ",2005-08-05T11:26:54.06 ,"1/0071321208.58890",    0,    8,  162264,"AIS","B1","B1","B1","B1","PISd",0,0,0,0,"B1", 0,15,   0, 0,    0,"AIS","N/A    ","OK ","OK ",    001098.831,    -051.732,    -099.107,    0015.764,    0050.131
"FRM_AIS_EDR_1999.DAT           ",2005-08-05T11:27:01.60 ,"1/0071321216.28953",    0,    9,  162264,"AIS","B1","B1","B1","B1","PISd",0,0,0,0,"B1", 0,15,   0, 0,    0,"AIS","N/A    ","OK ","OK ",    001088.705,    -051.394,    -099.086,    0015.768,    0050.105
"FRM_AIS_EDR_1999.DAT           ",2005-08-05T11:27:09.14 ,"1/0071321223.64552",    0,   10,  162264,"AIS","B1","B1","B1","B1","PISd",0,0,0,0,"B1", 0,15,   0, 0,    0,"AIS","N/A    ","OK ","OK ",    001078.615,    -051.054,    -099.065,    0015.771,    0050.080
"FRM_AIS_EDR_1999.DAT           ",2005-08-05T11:27:16.69 ,"1/0071321231.34616",    0,   11,  162264,"AIS","B1","B1","B1","B1","PISd",0,0,0,0,"B1", 0,15,   0, 0,    0,"AIS","N/A    ","OK ","OK ",    001068.560,    -050.713,    -099.044,    0015.775,    0050.056
"FRM_AIS_EDR_1999.DAT           ",2005-08-05T11:27:24.23 ,"1/0071321239.04679",    0,   12,  162264,"AIS","B1","B1","B1","B1","PISd",0,0,0,0,"B1", 0,15,   0, 0,    0,"AIS","N/A    ","OK ","OK ",    001058.542,    -050.370,    -099.024,    0015.778,    0050.034
"FRM_AIS_EDR_1999.DAT           ",2005-08-05T11:27:31.77 ,"1/0071321246.40278",    0,   13,  162264,"AIS","B1","B1","B1","B1","PISd",0,0,0,0,"B1", 0,15,   0, 0,    0,"AIS","N/A    ","OK ","OK ",    001048.560,    -050.026,    -099.004,    0015.782,    0050.014
"FRM_AIS_EDR_1999.DAT           ",2005-08-05T11:27:39.32 ,"1/0071321254.10342",    0,   14,  162264,"AIS","B1","B1","B1","B1","PISd",0,0,0,0,"B1", 0,15,   0, 0,    0,"AIS","N/A    ","OK ","OK ",    001038.616,    -049.681,    -098.985,    0015.785,    0049.996
"FRM_AIS_EDR_1999.DAT           ",2005-08-05T11:27:46.86 ,"1/0071321261.45941",    0,   15,  162264,"AIS","B1","B1","B1","B1","PISd",0,0,0,0,"B1", 0,15,   0, 0,    0,"AIS","N/A    ","OK ","OK ",    001028.711,    -049.333,    -098.967,    0015.788,    0049.979
"FRM_AIS_EDR_1999.DAT           ",2005-08-05T11:27:54.40 ,"1/0071321269.16004",    0,   16,  162264,"AIS","B1","B1","B1","B1","PISd",0,0,0,0,"B1", 0,15,   0, 0,    0,"AIS","N/A    ","OK ","OK ",    001018.843,    -048.984,    -098.949,    0015.791,    0049.963
"FRM_AIS_EDR_1999.DAT           ",2005-08-05T11:28:01.94 ,"1/0071321276.51604",    0,   17,  162264,"AIS","B1","B1","B1","B1","PISd",0,0,0,0,"B1", 0,15,   0, 0,    0,"AIS","N/A    ","OK ","OK ",    001009.015,    -048.634,    -098.931,    0015.795,    0049.950
"FRM_AIS_EDR_1999.DAT           ",2005-08-05T11:28:09.49 ,"1/0071321284.21667",    0,   18,  162264,"AIS","B1","B1","B1","B1","PISd",0,0,0,0,"B1", 0,15,   0, 0,    0,"AIS","N/A    ","OK ","OK ",    000999.226,    -048.282,    -098.914,    0015.798,    0049.938
"FRM_AIS_EDR_1999.DAT           ",2005-08-05T11:28:17.03 ,"1/0071321291.57266",    0,   19,  162264,"AIS","B1","B1","B1","B1","PISd",0,0,0,0,"B1", 0,15,   0, 0,    0,"AIS","N/A    ","OK ","OK ",    000989.478,    -047.928,    -098.897,    0015.801,    0049.928
"FRM_AIS_EDR_1999.DAT           ",2005-08-05T11:28:24.57 ,"1/0071321299.27330",    0,   20,  162264,"AIS","B1","B1","B1","B1","PISd",0,0,0,0,"B1", 0,15,   0, 0,    0,"AIS","N/A    ","OK ","OK ",    000979.770,    -047.573,    -098.881,    0015.804,    0049.920
"FRM_AIS_EDR_1999.DAT           ",2005-08-05T11:28:32.12 ,"1/0071321306.62929",    0,   21,  162264,"AIS","B1","B1","B1","B1","PISd",0,0,0,0,"B1", 0,15,   0, 0,    0,"AIS","N/A    ","OK ","OK ",    000970.104,    -047.216,    -098.865,    0015.807,    0049.914
"FRM_AIS_EDR_1999.DAT           ",2005-08-05T11:28:39.66 ,"1/0071321314.32992",    0,   22,  162264,"AIS","B1","B1","B1","B1","PISd",0,0,0,0,"B1", 0,15,   0, 0,    0,"AIS","N/A    ","OK ","OK ",    000960.479,    -046.858,    -098.849,    0015.810,    0049.909
"FRM_AIS_EDR_1999.DAT           ",2005-08-05T11:28:47.20 ,"1/0071321322.03056",    0,   23,  162264,"AIS","B1","B1","B1","B1","PISd",0,0,0,0,"B1", 0,15,   0, 0,    0,"AIS","N/A    ","OK ","OK ",    000950.897,    -046.498,    -098.834,    0015.813,    0049.907
"FRM_AIS_EDR_1999.DAT           ",2005-08-05T11:28:54.75 ,"1/0071321329.38655",    0,   24,  162264,"AIS","B1","B1","B1","B1","PISd",0,0,0,0,"B1", 0,15,   0, 0,    0,"AIS","N/A    ","OK ","OK ",    000941.358,    -046.137,    -098.820,    0015.816,    0049.906
"FRM_AIS_EDR_1999.DAT           ",2005-08-05T11:29:02.29 ,"1/0071321337.08718",    0,   25,  162264,"AIS","B1","B1","B1","B1","PISd",0,0,0,0,"B1", 0,15,   0, 0,    0,"AIS","N/A    ","OK ","OK ",    000931.863,    -045.773,    -098.805,    0015.819,    0049.907
"FRM_AIS_EDR_1999.DAT           ",2005-08-05T11:29:09.83 ,"1/0071321344.44318",    0,   26,  162264,"AIS","B1","B1","B1","B1","PISd",0,0,0,0,"B1", 0,15,   0, 0,    0,"AIS","N/A    ","OK ","OK ",    000922.412,    -045.409,    -098.791,    0015.822,    0049.911
"FRM_AIS_EDR_1999.DAT           ",2005-08-05T11:29:17.38 ,"1/0071321352.14381",    0,   27,  162264,"AIS","B1","B1","B1","B1","PISd",0,0,0,0,"B1", 0,15,   0, 0,    0,"AIS","N/A    ","OK ","OK ",    000913.006,    -045.042,    -098.778,    0015.825,    0049.916
"FRM_AIS_EDR_1999.DAT           ",2005-08-05T11:29:24.92 ,"1/0071321359.49980",    0,   28,  162264,"AIS","B1","B1","B1","B1","PISd",0,0,0,0,"B1", 0,15,   0, 0,    0,"AIS","N/A    ","OK ","OK ",    000903.646,    -044.675,    -098.765,    0015.828,    0049.923
"FRM_AIS_EDR_1999.DAT           ",2005-08-05T11:29:32.46 ,"1/0071321367.20044",    0,   29,  162264,"AIS","B1","B1","B1","B1","PISd",0,0,0,0,"B1", 0,15,   0, 0,    0,"AIS","N/A    ","OK ","OK ",    000894.331,    -044.305,    -098.752,    0015.831,    0049.933
"FRM_AIS_EDR_1999.DAT           ",2005-08-05T11:29:40.01 ,"1/0071321374.55643",    0,   30,  162264,"AIS","B1","B1","B1","B1","PISd",0,0,0,0,"B1", 0,15,   0, 0,    0,"AIS","N/A    ","OK ","OK ",    000885.063,    -043.934,    -098.740,    0015.834,    0049.944
"FRM_AIS_EDR_1999.DAT           ",2005-08-05T11:29:47.55 ,"1/0071321382.25706",    0,   31,  162264,"AIS","B1","B1","B1","B1","PISd",0,0,0,0,"B1", 0,15,   0, 0,    0,"AIS","N/A    ","OK ","OK ",    000875.842,    -043.561,    -098.728,    0015.837,    0049.957
"FRM_AIS_EDR_1999.DAT           ",2005-08-05T11:29:55.09 ,"1/0071321389.61306",    0,   32,  162264,"AIS","B1","B1","B1","B1","PISd",0,0,0,0,"B1", 0,15,   0, 0,    0,"AIS","N/A    ","OK ","OK ",    000866.669,    -043.187,    -098.716,    0015.839,    0049.973
"FRM_AIS_EDR_1999.DAT           ",2005-08-05T11:30:02.64 ,"1/0071321397.31369",    0,   33,  162264,"AIS","B1","B1","B1","B1","PISd",0,0,0,0,"B1", 0,15,   0, 0,    0,"AIS","N/A    ","OK ","OK ",    000857.545,    -042.811,    -098.705,    0015.842,    0049.991
"FRM_AIS_EDR_1999.DAT           ",2005-08-05T11:30:10.18 ,"1/0071321405.01432",    0,   34,  162264,"AIS","B1","B1","B1","B1","PISd",0,0,0,0,"B1", 0,15,   0, 0,    0,"AIS","N/A    ","OK ","OK ",    000848.470,    -042.433,    -098.694,    0015.845,    0050.011
"FRM_AIS_EDR_1999.DAT           ",2005-08-05T11:30:17.72 ,"1/0071321412.37032",    0,   35,  162264,"AIS","B1","B1","B1","B1","PISd",0,0,0,0,"B1", 0,15,   0, 0,    0,"AIS","N/A    ","OK ","OK ",    000839.444,    -042.054,    -098.683,    0015.848,    0050.033
"FRM_AIS_EDR_1999.DAT           ",2005-08-05T11:30:25.27 ,"1/0071321420.07095",    0,   36,  162264,"AIS","B1","B1","B1","B1","PISd",0,0,0,0,"B1", 0,15,   0, 0,    0,"AIS","N/A    ","OK ","OK ",    000830.469,    -041.673,    -098.673,    0015.851,    0050.057
"FRM_AIS_EDR_1999.DAT           ",2005-08-05T11:30:32.81 ,"1/0071321427.42694",    0,   37,  162264,"AIS","B1","B1","B1","B1","PISd",0,0,0,0,"B1", 0,15,   0, 0,    0,"AIS","N/A    ","OK ","OK ",    000821.545,    -041.291,    -098.663,    0015.853,    0050.084
"FRM_AIS_EDR_1999.DAT           ",2005-08-05T11:30:40.35 ,"1/0071321435.12758",    0,   38,  162264,"AIS","B1","B1","B1","B1","PISd",0,0,0,0,"B1", 0,15,   0, 0,    0,"AIS","N/A    ","OK ","OK ",    000812.672,    -040.907,    -098.653,    0015.856,    0050.113
"FRM_AIS_EDR_1999.DAT           ",2005-08-05T11:30:47.90 ,"1/0071321442.48357",    0,   39,  162264,"AIS","B1","B1","B1","B1","PISd",0,0,0,0,"B1", 0,15,   0, 0,    0,"AIS","N/A    ","OK ","OK ",    000803.852,    -040.521,    -098.644,    0015.859,    0050.144
"FRM_AIS_EDR_1999.DAT           ",2005-08-05T11:30:55.44 ,"1/0071321450.18420",    0,   40,  162264,"AIS","B1","B1","B1","B1","PISd",0,0,0,0,"B1", 0,15,   0, 0,    0,"AIS","N/A    ","OK ","OK ",    000795.084,    -040.134,    -098.634,    0015.861,    0050.178
"FRM_AIS_EDR_1999.DAT           ",2005-08-05T11:31:02.98 ,"1/0071321457.54020",    0,   41,  162264,"AIS","B1","B1","B1","B1","PISd",0,0,0,0,"B1", 0,15,   0, 0,    0,"AIS","N/A    ","OK ","OK ",    000786.371,    -039.745,    -098.626,    0015.864,    0050.213
"FRM_AIS_EDR_1999.DAT           ",2005-08-05T11:31:10.53 ,"1/0071321465.24083",    0,   42,  162264,"AIS","B1","B1","B1","B1","PISd",0,0,0,0,"B1", 0,15,   0, 0,    0,"AIS","N/A    ","OK ","OK ",    000777.711,    -039.355,    -098.617,    0015.867,    0050.252
"FRM_AIS_EDR_1999.DAT           ",2005-08-05T11:31:18.07 ,"1/0071321472.59682",    0,   43,  162264,"AIS","B1","B1","B1","B1","PISd",0,0,0,0,"B1", 0,15,   0, 0,    0,"AIS","N/A    ","OK ","OK ",    000769.106,    -038.963,    -098.609,    0015.869,    0050.292
"FRM_AIS_EDR_1999.DAT           ",2005-08-05T11:31:25.61 ,"1/0071321480.29746",    0,   44,  162264,"AIS","B1","B1","B1","B1","PISd",0,0,0,0,"B1", 0,15,   0, 0,    0,"AIS","N/A    ","OK ","OK ",    000760.557,    -038.569,    -098.601,    0015.872,    0050.335
"FRM_AIS_EDR_1999.DAT           ",2005-08-05T11:31:33.15 ,"1/0071321487.65345",    0,   45,  162264,"AIS","B1","B1","B1","B1","PISd",0,0,0,0,"B1", 0,15,   0, 0,    0,"AIS","N/A    ","OK ","OK ",    000752.063,    -038.174,    -098.593,    0015.874,    0050.381
"FRM_AIS_EDR_1999.DAT           ",2005-08-05T11:31:40.70 ,"1/0071321495.35408",    0,   46,  162264,"AIS","B1","B1","B1","B1","PISd",0,0,0,0,"B1", 0,15,   0, 0,    0,"AIS","N/A    ","OK ","OK ",    000743.627,    -037.777,    -098.586,    0015.877,    0050.429
"FRM_AIS_EDR_1999.DAT           ",2005-08-05T11:31:48.24 ,"1/0071321503.05472",    0,   47,  162264,"AIS","B1","B1","B1","B1","PISd",0,0,0,0,"B1", 0,15,   0, 0,    0,"AIS","N/A    ","OK ","OK ",    000735.248,    -037.378,    -098.578,    0015.879,    0050.479
"FRM_AIS_EDR_1999.DAT           ",2005-08-05T11:31:55.78 ,"1/0071321510.41071",    0,   48,  162264,"AIS","B1","B1","B1","B1","PISd",0,0,0,0,"B1", 0,15,   0, 0,    0,"AIS","N/A    ","OK ","OK ",    000726.927,    -036.978,    -098.571,    0015.882,    0050.532
"FRM_AIS_EDR_1999.DAT           ",2005-08-05T11:32:03.33 ,"1/0071321518.11134",    0,   49,  162264,"AIS","B1","B1","B1","B1","PISd",0,0,0,0,"B1", 0,15,   0, 0,    0,"AIS","N/A    ","OK ","OK ",    000718.665,    -036.577,    -098.565,    0015.884,    0050.587
"FRM_AIS_EDR_1999.DAT           ",2005-08-05T11:32:10.87 ,"1/0071321525.46734",    0,   50,  162264,"AIS","B1","B1","B1","B1","PISd",0,0,0,0,"B1", 0,15,   0, 0,    0,"AIS","N/A    ","OK ","OK ",    000710.463,    -036.173,    -098.558,    0015.887,    0050.645
"FRM_AIS_EDR_1999.DAT           ",2005-08-05T11:32:18.41 ,"1/0071321533.16797",    0,   51,  162264,"AIS","B1","B1","B1","B1","PISd",0,0,0,0,"B1", 0,15,   0, 0,    0,"AIS","N/A    ","OK ","OK ",    000702.320,    -035.768,    -098.552,    0015.889,    0050.706
"FRM_AIS_EDR_1999.DAT           ",2005-08-05T11:32:25.96 ,"1/0071321540.52396",    0,   52,  162264,"AIS","B1","B1","B1","B1","PISd",0,0,0,0,"B1", 0,15,   0, 0,    0,"AIS","N/A    ","OK ","OK ",    000694.239,    -035.362,    -098.546,    0015.892,    0050.769
"FRM_AIS_EDR_1999.DAT           ",2005-08-05T11:32:33.50 ,"1/0071321548.22460",    0,   53,  162264,"AIS","B1","B1","B1","B1","PISd",0,0,0,0,"B1", 0,15,   0, 0,    0,"AIS","N/A    ","OK ","OK ",    000686.218,    -034.954,    -098.540,    0015.894,    0050.834
"FRM_AIS_EDR_1999.DAT           ",2005-08-05T11:32:41.04 ,"1/0071321555.58059",    0,   54,  162264,"AIS","B1","B1","B1","B1","PISd",0,0,0,0,"B1", 0,15,   0, 0,    0,"AIS","N/A    ","OK ","OK ",    000678.260,    -034.544,    -098.535,    0015.896,    0050.903
"FRM_AIS_EDR_1999.DAT           ",2005-08-05T11:32:48.59 ,"1/0071321563.28122",    0,   55,  162264,"AIS","B1","B1","B1","B1","PISd",0,0,0,0,"B1", 0,15,   0, 0,    0,"AIS","N/A    ","OK ","OK ",    000670.365,    -034.133,    -098.529,    0015.899,    0050.974
"FRM_AIS_EDR_1999.DAT           ",2005-08-05T11:32:56.13 ,"1/0071321570.63722",    0,   56,  162264,"AIS","B1","B1","B1","B1","PISd",0,0,0,0,"B1", 0,15,   0, 0,    0,"AIS","N/A    ","OK ","OK ",    000662.533,    -033.720,    -098.524,    0015.901,    0051.047
"FRM_AIS_EDR_1999.DAT           ",2005-08-05T11:33:03.67 ,"1/0071321578.33785",    0,   57,  162264,"AIS","B1","B1","B1","B1","PISd",0,0,0,0,"B1", 0,15,   0, 0,    0,"AIS","N/A    ","OK ","OK ",    000654.766,    -033.305,    -098.519,    0015.904,    0051.123
"FRM_AIS_EDR_1999.DAT           ",2005-08-05T11:33:11.22 ,"1/0071321586.03848",    0,   58,  162264,"AIS","B1","B1","B1","B1","PISd",0,0,0,0,"B1", 0,15,   0, 0,    0,"AIS","N/A    ","OK ","OK ",    000647.063,    -032.889,    -098.514,    0015.906,    0051.202
"FRM_AIS_EDR_1999.DAT           ",2005-08-05T11:33:18.76 ,"1/0071321593.39448",    0,   59,  162264,"AIS","B1","B1","B1","B1","PISd",0,0,0,0,"B1", 0,15,   0, 0,    0,"AIS","N/A    ","OK ","OK ",    000639.426,    -032.472,    -098.510,    0015.908,    0051.284
"FRM_AIS_EDR_1999.DAT           ",2005-08-05T11:33:26.30 ,"1/0071321601.09511",    0,   60,  162264,"AIS","B1","B1","B1","B1","PISd",0,0,0,0,"B1", 0,15,   0, 0,    0,"AIS","N/A    ","OK ","OK ",    000631.855,    -032.052,    -098.506,    0015.911,    0051.368
"FRM_AIS_EDR_1999.DAT           ",2005-08-05T11:33:33.85 ,"1/0071321608.45110",    0,   61,  162264,"AIS","B1","B1","B1","B1","PISd",0,0,0,0,"B1", 0,15,   0, 0,    0,"AIS","N/A    ","OK ","OK ",    000624.351,    -031.632,    -098.501,    0015.913,    0051.455
"FRM_AIS_EDR_1999.DAT           ",2005-08-05T11:33:41.39 ,"1/0071321616.15174",    0,   62,  162264,"AIS","B1","B1","B1","B1","PISd",0,0,0,0,"B1", 0,15,   0, 0,    0,"AIS","N/A    ","OK ","OK ",    000616.915,    -031.209,    -098.498,    0015.915,    0051.545
"FRM_AIS_EDR_1999.DAT           ",2005-08-05T11:33:48.93 ,"1/0071321623.50773",    0,   63,  162264,"AIS","B1","B1","B1","B1","PISd",0,0,0,0,"B1", 0,15,   0, 0,    0,"AIS","N/A    ","OK ","OK ",    000609.546,    -030.786,    -098.494,    0015.918,    0051.638
"FRM_AIS_EDR_1999.DAT           ",2005-08-05T11:33:56.48 ,"1/0071321631.20836",    0,   64,  162264,"AIS","B1","B1","B1","B1","PISd",0,0,0,0,"B1", 0,15,   0, 0,    0,"AIS","N/A    ","OK ","OK ",    000602.247,    -030.360,    -098.490,    0015.920,    0051.733
"FRM_AIS_EDR_1999.DAT           ",2005-08-05T11:34:04.02 ,"1/0071321638.56436",    0,   65,  162264,"AIS","B1","B1","B1","B1","PISd",0,0,0,0,"B1", 0,15,   0, 0,    0,"AIS","N/A    ","OK ","OK ",    000595.018,    -029.933,    -098.487,    0015.922,    0051.831
"FRM_AIS_EDR_1999.DAT           ",2005-08-05T11:34:11.56 ,"1/0071321646.26499",    0,   66,  162264,"AIS","B1","B1","B1","B1","PISd",0,0,0,0,"B1", 0,15,   0, 0,    0,"AIS","N/A    ","OK ","OK ",    000587.858,    -029.505,    -098.484,    0015.924,    0051.932
"FRM_AIS_EDR_1999.DAT           ",2005-08-05T11:34:19.11 ,"1/0071321653.62098",    0,   67,  162264,"AIS","B1","B1","B1","B1","PISd",0,0,0,0,"B1", 0,15,   0, 0,    0,"AIS","N/A    ","OK ","OK ",    000580.770,    -029.075,    -098.480,    0015.927,    0052.035
"FRM_AIS_EDR_1999.DAT           ",2005-08-05T11:34:26.65 ,"1/0071321661.32161",    0,   68,  162264,"AIS","B1","B1","B1","B1","PISd",0,0,0,0,"B1", 0,15,   0, 0,    0,"AIS","N/A    ","OK ","OK ",    000573.753,    -028.643,    -098.478,    0015.929,    0052.142
"FRM_AIS_EDR_1999.DAT           ",2005-08-05T11:34:34.19 ,"1/0071321669.02225",    0,   69,  162264,"AIS","B1","B1","B1","B1","PISd",0,0,0,0,"B1", 0,15,   0, 0,    0,"AIS","N/A    ","OK ","OK ",    000566.809,    -028.210,    -098.475,    0015.931,    0052.251
"FRM_AIS_EDR_1999.DAT           ",2005-08-05T11:34:41.73 ,"1/0071321676.37824",    0,   70,  162264,"AIS","B1","B1","B1","B1","PISd",0,0,0,0,"B1", 0,15,   0, 0,    0,"AIS","N/A    ","OK ","OK ",    000559.938,    -027.776,    -098.472,    0015.933,    0052.363
"FRM_AIS_EDR_1999.DAT           ",2005-08-05T11:34:49.28 ,"1/0071321684.07887",    0,   71,  162264,"AIS","B1","B1","B1","B1","PISd",0,0,0,0,"B1", 0,15,   0, 0,    0,"AIS","N/A    ","OK ","OK ",    000553.140,    -027.340,    -098.470,    0015.936,    0052.478
"FRM_AIS_EDR_1999.DAT           ",2005-08-05T11:34:56.82 ,"1/0071321691.43487",    0,   72,  162264,"AIS","B1","B1","B1","B1","PISd",0,0,0,0,"B1", 0,15,   0, 0,    0,"AIS","N/A    ","OK ","OK ",    000546.417,    -026.902,    -098.468,    0015.938,    0052.596
"FRM_AIS_EDR_1999.DAT           ",2005-08-05T11:35:04.36 ,"1/0071321699.13550",    0,   73,  162264,"AIS","B1","B1","B1","B1","PISd",0,0,0,0,"B1", 0,15,   0, 0,    0,"AIS","N/A    ","OK ","OK ",    000539.769,    -026.463,    -098.465,    0015.940,    0052.716
"FRM_AIS_EDR_1999.DAT           ",2005-08-05T11:35:11.91 ,"1/0071321706.49149",    0,   74,  162264,"AIS","B1","B1","B1","B1","PISd",0,0,0,0,"B1", 0,15,   0, 0,    0,"AIS","N/A    ","OK ","OK ",    000533.197,    -026.023,    -098.463,    0015.942,    0052.840
"FRM_AIS_EDR_1999.DAT           ",2005-08-05T11:35:19.45 ,"1/0071321714.19213",    0,   75,  162264,"AIS","B1","B1","B1","B1","PISd",0,0,0,0,"B1", 0,15,   0, 0,    0,"AIS","N/A    ","OK ","OK ",    000526.701,    -025.581,    -098.462,    0015.944,    0052.966
"FRM_AIS_EDR_1999.DAT           ",2005-08-05T11:35:26.99 ,"1/0071321721.54812",    0,   76,  162264,"AIS","B1","B1","B1","B1","PISd",0,0,0,0,"B1", 0,15,   0, 0,    0,"AIS","N/A    ","OK ","OK ",    000520.282,    -025.138,    -098.460,    0015.946,    0053.095
"FRM_AIS_EDR_1999.DAT           ",2005-08-05T11:35:34.54 ,"1/0071321729.24875",    0,   77,  162264,"AIS","B1","B1","B1","B1","PISd",0,0,0,0,"B1", 0,15,   0, 0,    0,"AIS","N/A    ","OK ","OK ",    000513.941,    -024.693,    -098.458,    0015.949,    0053.227
"FRM_AIS_EDR_1999.DAT           ",2005-08-05T11:35:42.08 ,"1/0071321736.60475",    0,   78,  162264,"AIS","B1","B1","B1","B1","PISd",0,0,0,0,"B1", 0,15,   0, 0,    0,"AIS","N/A    ","OK ","OK ",    000507.679,    -024.247,    -098.457,    0015.951,    0053.362
"FRM_AIS_EDR_1999.DAT           ",2005-08-05T11:35:49.62 ,"1/0071321744.30538",    0,   79,  162264,"AIS","B1","B1","B1","B1","PISd",0,0,0,0,"B1", 0,15,   0, 0,    0,"AIS","N/A    ","OK ","OK ",    000501.495,    -023.799,    -098.455,    0015.953,    0053.499
"FRM_AIS_EDR_1999.DAT           ",2005-08-05T11:35:57.17 ,"1/0071321752.00601",    0,   80,  162264,"AIS","B1","B1","B1","B1","PISd",0,0,0,0,"B1", 0,15,   0, 0,    0,"AIS","N/A    ","OK ","OK ",    000495.391,    -023.350,    -098.454,    0015.955,    0053.640
"FRM_AIS_EDR_1999.DAT           ",2005-08-05T11:36:04.71 ,"1/0071321759.36201",    0,   81,  162264,"AIS","B1","B1","B1","B1","PISd",0,0,0,0,"B1", 0,15,   0, 0,    0,"AIS","N/A    ","OK ","OK ",    000489.368,    -022.900,    -098.453,    0015.957,    0053.783
"FRM_AIS_EDR_1999.DAT           ",2005-08-05T11:36:12.25 ,"1/0071321767.06264",    0,   82,  162264,"AIS","B1","B1","B1","B1","PISd",0,0,0,0,"B1", 0,15,   0, 0,    0,"AIS","N/A    ","OK ","OK ",    000483.426,    -022.448,    -098.452,    0015.959,    0053.929
"FRM_AIS_EDR_1999.DAT           ",2005-08-05T11:36:19.80 ,"1/0071321774.41863",    0,   83,  162264,"AIS","B1","B1","B1","B1","PISd",0,0,0,0,"B1", 0,15,   0, 0,    0,"AIS","N/A    ","OK ","OK ",    000477.565,    -021.995,    -098.451,    0015.961,    0054.078
"FRM_AIS_EDR_1999.DAT           ",2005-08-05T11:36:27.34 ,"1/0071321782.11927",    0,   84,  162264,"AIS","B1","B1","B1","B1","PISd",0,0,0,0,"B1", 0,15,   0, 0,    0,"AIS","N/A    ","OK ","OK ",    000471.787,    -021.541,    -098.451,    0015.963,    0054.230
"FRM_AIS_EDR_1999.DAT           ",2005-08-05T11:36:34.88 ,"1/0071321789.47526",    0,   85,  162264,"AIS","B1","B1","B1","B1","PISd",0,0,0,0,"B1", 0,15,   0, 0,    0,"AIS","N/A    ","OK ","OK ",    000466.092,    -021.085,    -098.450,    0015.965,    0054.385
"FRM_AIS_EDR_1999.DAT           ",2005-08-05T11:36:42.43 ,"1/0071321797.17589",    0,   86,  162264,"AIS","B1","B1","B1","B1","PISd",0,0,0,0,"B1", 0,15,   0, 0,    0,"AIS","N/A    ","OK ","OK ",    000460.480,    -020.628,    -098.449,    0015.967,    0054.542
"FRM_AIS_EDR_1999.DAT           ",2005-08-05T11:36:49.97 ,"1/0071321804.53189",    0,   87,  162264,"AIS","B1","B1","B1","B1","PISd",0,0,0,0,"B1", 0,15,   0, 0,    0,"AIS","N/A    ","OK ","OK ",    000454.952,    -020.170,    -098.449,    0015.969,    0054.703
"FRM_AIS_EDR_1999.DAT           ",2005-08-05T11:36:57.51 ,"1/0071321812.23252",    0,   88,  162264,"AIS","B1","B1","B1","B1","PISd",0,0,0,0,"B1", 0,15,   0, 0,    0,"AIS","N/A    ","OK ","OK ",    000449.510,    -019.710,    -098.449,    0015.972,    0054.866
"FRM_AIS_EDR_1999.DAT           ",2005-08-05T11:37:05.06 ,"1/0071321819.58851",    0,   89,  162264,"AIS","B1","B1","B1","B1","PISd",0,0,0,0,"B1", 0,15,   0, 0,    0,"AIS","N/A    ","OK ","OK ",    000444.153,    -019.249,    -098.448,    0015.974,    0055.032
"FRM_AIS_EDR_1999.DAT           ",2005-08-05T11:37:12.60 ,"1/0071321827.28915",    0,   90,  162264,"AIS","B1","B1","B1","B1","PISd",0,0,0,0,"B1", 0,15,   0, 0,    0,"AIS","N/A    ","OK ","OK ",    000438.882,    -018.787,    -098.448,    0015.976,    0055.200